KAZSTSAT

Last updated on Wed Sep 23 2026 00:03:16 GMT+0000 (Coordinated Universal Time)

1 43783U 18099AB 26265.36071494 .00001376 00000+0 11487-3 0 9997 2 43783 97.4223 292.8665 0014035 83.7129 276.5693 15.00044770425877
UTC large
Height (km)
Speed (km/s)
/
Latitude / Longitude
Inclination (degrees)
Orbital Period (minutes)
Azimuth
Elevation
Range (km)
Doppler Factor

Next 0 passes for location: London (51.5072 / 0.1276)

No passes found over London.
KAZSTSAT